Location: Prairie Dale
(45.6972°N, 104.5033°W)
Time: 18:36:29
(UTC+00:00)

AO-109 - Pass Details

Date: 07 July 2022
Orbit: 470 x 506 km, 60.7° (Epoch: 06 August)

Event Time Altitude Azimuth Distance (km) Brightness Sun altitude
Exits shadow 08:05:44 15° 113° (ESE) 1,380 ? -20.3°
Drops below altitude 10° 08:07:36 10° 82° (E) 1,658 ? -20.2°
Sets 08:10:29 0° 59° (ENE) 2,552 ? -20.0°
